Temp
13 13 13 13 13 13 13 13 14 14 15 15 15 15 15 15 15 15 15 15 15 15 15 15 15 16 16 16 15 17 17 20 20 19 19 19 19 18 17 16 15 14 14 13 13
13 13 13 13 13 13 13 14 14 14 14 14 15 15 16 15 15 15 16 15 15 15 15 15 15 15 14 16 16 17 19 19 19 19 19 19 19 18 17 17 15 14 14 14 14
13 13 13 13 13 13 13 14 14 14 14 14 14 15 15 15 15 14 15 16 15 15 15 15 15 16 15 17 17 18 19 19 19 19 19 19 19 19 18 18 17 15 13 14 14
12 12 13 13 13 13 13 13 14 14 14 14 15 15 15 15 15 15 15 16 16 15 15 15 15 15 16 17 18 17 18 18 19 19 19 19 19 19 18 18 17 16 15 14 14
12 12 12 13 13 13 13 14 14 14 14 14 15 15 15 15 14 15 16 16 16 15 15 15 15 15 16 17 18 18 18 18 19 19 18 18 19 19 18 18 17 16 14 14 13
12 12 12 12 13 13 13 13 14 14 14 14 14 15 15 14 16 15 15 15 16 15 15 15 15 15 16 16 17 18 17 18 19 19 19 18 19 19 18 17 16 15 14 14 13
11 12 12 12 12 13 13 13 13 14 14 14 14 14 15 14 16 16 15 15 15 15 14 14 14 15 16 17 17 17 17 18 19 19 19 19 19 16 18 17 16 15 14 14 13
11 11 11 12 12 12 13 13 13 13 13 14 14 14 15 15 15 16 15 14 14 14 13 14 14 14 15 16 16 17 18 19 20 19 19 19 20 19 18 17 16 15 15 16 14
10 10 11 11 12 12 12 13 13 13 13 13 14 14 14 15 15 15 16 15 13 13 13 14 14 14 15 16 17 17 18 19 20 19 19 19 19 19 18 17 16 15 15 15 13
9 10 10 10 11 11 12 12 12 13 13 13 13 13 14 15 14 15 16 15 14 13 13 13 14 15 16 17 18 19 19 20 20 19 19 19 19 20 19 18 17 16 15 14 13
8 9 9 9 10 10 11 11 11 12 12 13 13 14 14 13 15 15 14 14 14 14 14 15 15 16 17 18 18 18 18 19 19 19 19 19 19 19 19 18 18 16 15 14 14
8 8 8 9 9 9 10 10 11 11 12 13 14 13 13 13 14 14 14 14 14 15 15 16 16 17 17 17 17 17 17 18 18 18 18 19 19 20 18 18 18 17 16 14 14
8 8 8 8 8 9 9 9 9 10 10 13 12 13 14 13 14 14 14 14 15 15 16 16 17 17 17 16 16 17 17 18 18 18 19 18 19 19 19 18 18 17 17 15 14
7 7 7 7 7 8 8 9 9 9 9 12 13 13 13 14 14 14 15 15 15 16 16 17 17 17 17 16 17 18 18 18 18 18 19 19 20 20 19 19 18 17 17 16 14
6 7 6 7 7 7 8 8 8 8 12 14 14 14 14 13 15 15 15 15 15 16 16 17 17 17 16 17 17 17 18 17 17 18 18 19 20 20 19 19 19 18 16 16 14
6 7 6 6 6 7 7 7 7 8 12 14 14 14 14 14 15 15 15 15 15 15 16 16 17 17 17 17 17 17 17 17 17 18 20 20 20 21 20 19 19 18 17 15 15
6 6 6 6 5 6 7 7 7 10 12 13 14 14 14 14 15 15 15 15 15 16 16 16 16 17 16 17 17 16 17 18 19 20 21 21 20 20 20 19 18 18 16 17 17
5 6 6 6 6 6 6 6 8 10 11 13 13 14 15 15 15 15 15 15 15 16 16 17 17 17 16 16 17 17 17 19 19 21 22 20 20 20 19 19 18 17 15 17 17
5 5 5 6 6 6 6 6 8 10 12 12 13 13 14 14 15 15 15 15 16 16 16 17 17 17 17 17 17 17 18 18 19 19 20 21 20 19 19 18 18 16 15 17 16
4 5 5 6 6 6 5 6 9 10 10 10 11 12 14 15 15 15 16 15 16 16 16 16 17 18 17 17 17 17 17 18 18 19 19 21 20 20 19 18 18 16 15 17 16
4 4 5 5 5 5 5 7 8 9 9 9 10 12 13 14 14 15 16 16 16 16 16 16 17 17 17 17 17 17 17 17 18 19 20 20 20 19 19 19 17 16 15 14 16
3 3 4 4 4 5 6 7 8 8 9 9 9 10 11 12 13 13 15 15 14 15 16 16 16 16 17 17 17 17 17 17 18 18 18 19 19 19 18 18 17 17 15 14 13
3 2 4 4 5 7 7 7 7 7 8 9 9 9 10 11 11 12 14 13 13 14 15 15 16 16 17 17 17 17 17 18 18 18 18 19 19 18 17 17 15 16 14 13 13
2 3 3 4 4 5 6 7 7 7 7 8 9 9 10 10 11 11 13 13 12 13 14 14 15 16 17 17 18 17 17 17 17 18 18 18 19 17 15 15 14 14 13 14 15
2 3 3 5 5 5 5 6 6 7 8 7 8 8 9 10 10 11 12 13 13 12 13 14 14 15 16 16 16 17 17 17 17 17 18 18 15 11 13 13 15 14 13 15 15
0 1 2 3 3 4 4 5 6 7 7 8 8 9 10 9 10 11 12 12 13 13 13 13 14 14 15 16 16 17 17 17 17 17 17 18 15 12 14 12 15 15 15 15 15
-1 1 2 3 4 5 5 5 5 6 7 7 8 9 9 10 10 10 11 12 12 12 13 12 13 14 15 16 16 16 17 17 17 17 17 16 13 13 11 14 15 15 15 14 14
Height
3202 3202 3201 3200 3200 3199 3199 3199 3198 3198 3199 3199 3200 3200 3200 3200 3200 3200 3201 3202 3203 3203 3203 3203 3203 3203 3202 3202 3202 3197 3196 3194 3196 3196 3194 3193 3192 3192 3191 3190 3189 3188 3189 3186 3183
3201 3200 3200 3200 3199 3198 3198 3198 3198 3198 3198 3198 3197 3198 3198 3197 3197 3196 3197 3198 3201 3201 3202 3202 3203 3203 3205 3206 3205 3202 3195 3197 3198 3196 3195 3193 3193 3192 3192 3191 3190 3188 3186 3184 3183
3200 3199 3199 3198 3198 3197 3197 3197 3197 3197 3196 3197 3196 3196 3196 3196 3196 3196 3194 3194 3197 3199 3201 3202 3202 3203 3206 3206 3205 3202 3200 3199 3198 3196 3195 3193 3191 3191 3190 3189 3187 3188 3185 3183 3183
3198 3198 3197 3197 3196 3196 3196 3195 3195 3196 3195 3195 3194 3194 3194 3195 3199 3193 3192 3191 3193 3196 3199 3201 3202 3204 3205 3205 3204 3202 3200 3199 3197 3196 3194 3192 3191 3190 3190 3189 3189 3188 3184 3183 3183
3195 3195 3195 3195 3194 3194 3194 3193 3194 3193 3194 3193 3193 3193 3193 3193 3196 3191 3190 3188 3188 3192 3196 3199 3202 3204 3204 3203 3202 3201 3199 3198 3196 3195 3193 3192 3190 3190 3189 3188 3186 3187 3183 3183 3183
3191 3191 3191 3191 3192 3191 3191 3191 3191 3191 3191 3191 3191 3190 3190 3192 3189 3189 3189 3188 3187 3189 3193 3197 3200 3203 3201 3201 3201 3199 3198 3196 3194 3193 3192 3191 3188 3188 3186 3185 3185 3184 3182 3182 3182
3187 3186 3186 3186 3187 3188 3188 3188 3188 3188 3188 3188 3188 3188 3188 3189 3187 3187 3186 3187 3188 3189 3192 3195 3197 3198 3199 3199 3198 3197 3196 3194 3191 3190 3190 3189 3185 3189 3185 3183 3182 3182 3181 3181 3181
3182 3181 3181 3181 3181 3181 3182 3184 3185 3185 3185 3185 3185 3184 3183 3184 3184 3184 3184 3185 3186 3188 3190 3193 3192 3193 3195 3196 3194 3195 3193 3190 3185 3187 3188 3189 3184 3184 3184 3183 3181 3181 3180 3179 3180
3177 3177 3176 3175 3176 3176 3177 3178 3180 3181 3181 3181 3182 3181 3182 3181 3181 3182 3182 3184 3184 3186 3187 3188 3188 3191 3193 3192 3191 3189 3186 3185 3182 3183 3186 3187 3183 3181 3182 3182 3181 3179 3179 3178 3179
3173 3172 3171 3171 3170 3170 3171 3172 3174 3175 3176 3176 3178 3180 3178 3179 3178 3178 3179 3182 3186 3186 3186 3185 3187 3188 3188 3188 3184 3181 3180 3178 3179 3182 3182 3182 3181 3180 3180 3180 3180 3178 3176 3177 3178
3168 3166 3166 3166 3166 3165 3167 3168 3171 3171 3168 3172 3176 3173 3175 3174 3173 3175 3177 3178 3182 3185 3184 3184 3185 3182 3182 3181 3181 3180 3179 3178 3176 3179 3180 3179 3179 3177 3177 3178 3177 3176 3174 3176 3178
3162 3161 3161 3160 3160 3161 3161 3162 3162 3163 3161 3162 3164 3166 3170 3169 3169 3172 3175 3176 3178 3179 3181 3182 3179 3179 3179 3179 3179 3180 3179 3177 3177 3176 3177 3175 3174 3173 3175 3175 3175 3174 3173 3173 3175
3158 3157 3156 3155 3156 3157 3157 3156 3157 3156 3153 3154 3157 3159 3162 3166 3164 3168 3171 3172 3174 3176 3176 3175 3175 3175 3175 3176 3177 3176 3175 3174 3174 3173 3172 3172 3170 3170 3171 3171 3170 3171 3172 3171 3171
3154 3152 3151 3151 3154 3153 3152 3152 3153 3154 3152 3147 3149 3150 3155 3159 3159 3162 3166 3169 3170 3170 3171 3170 3171 3171 3172 3173 3174 3170 3171 3171 3170 3171 3167 3167 3164 3159 3165 3167 3169 3169 3169 3169 3168
3149 3148 3146 3145 3147 3148 3148 3149 3151 3152 3148 3141 3140 3144 3149 3150 3156 3156 3160 3163 3163 3165 3168 3165 3167 3168 3168 3168 3169 3168 3168 3168 3168 3167 3165 3160 3159 3157 3160 3162 3163 3165 3166 3167 3166
3144 3143 3143 3142 3142 3143 3145 3146 3149 3153 3140 3138 3137 3138 3142 3143 3147 3151 3153 3157 3159 3161 3160 3160 3161 3162 3164 3164 3164 3166 3166 3166 3164 3161 3156 3154 3154 3151 3153 3156 3158 3160 3161 3161 3161
3139 3139 3138 3138 3139 3139 3141 3144 3149 3142 3136 3135 3134 3135 3135 3137 3140 3144 3146 3149 3150 3154 3154 3156 3155 3158 3160 3161 3161 3163 3163 3159 3154 3149 3145 3144 3147 3148 3151 3154 3156 3159 3158 3157 3157
3134 3134 3133 3134 3135 3136 3137 3143 3138 3131 3133 3130 3130 3128 3128 3130 3131 3135 3139 3141 3142 3145 3146 3146 3147 3151 3154 3155 3156 3157 3158 3153 3146 3138 3136 3140 3145 3147 3150 3152 3154 3153 3155 3154 3155
3129 3129 3130 3130 3131 3133 3135 3134 3131 3133 3131 3130 3129 3130 3128 3127 3127 3128 3130 3132 3134 3138 3140 3140 3139 3142 3144 3148 3153 3153 3151 3152 3148 3144 3142 3137 3139 3142 3145 3148 3150 3150 3150 3152 3153
3125 3126 3126 3127 3128 3129 3131 3128 3130 3132 3131 3131 3132 3130 3124 3122 3123 3125 3123 3126 3127 3130 3133 3135 3137 3135 3137 3144 3145 3146 3149 3149 3147 3144 3140 3135 3136 3136 3140 3144 3146 3148 3148 3148 3151
3122 3124 3121 3123 3123 3125 3125 3126 3128 3128 3130 3133 3130 3127 3124 3120 3118 3119 3119 3120 3121 3124 3126 3129 3132 3132 3132 3136 3138 3143 3143 3142 3140 3139 3134 3133 3132 3131 3138 3140 3143 3145 3146 3146 3149
3120 3124 3120 3120 3123 3123 3122 3124 3126 3125 3127 3128 3129 3127 3125 3122 3123 3120 3117 3115 3117 3121 3122 3125 3127 3129 3127 3131 3134 3134 3134 3138 3138 3139 3136 3134 3131 3132 3137 3138 3141 3143 3145 3146 3147
3117 3118 3117 3118 3120 3120 3120 3120 3121 3122 3123 3125 3125 3126 3127 3126 3127 3123 3117 3116 3119 3121 3122 3123 3123 3125 3126 3127 3127 3129 3130 3130 3132 3135 3132 3132 3133 3129 3133 3137 3137 3142 3143 3143 3145
3117 3120 3119 3116 3118 3118 3118 3118 3119 3119 3119 3120 3121 3123 3123 3124 3124 3122 3120 3118 3119 3120 3118 3120 3121 3122 3117 3119 3120 3122 3127 3128 3130 3130 3130 3129 3128 3129 3133 3134 3136 3137 3140 3139 3142
3115 3119 3117 3118 3118 3118 3118 3118 3116 3116 3117 3117 3117 3118 3119 3121 3121 3120 3121 3118 3119 3119 3120 3122 3120 3119 3118 3117 3121 3116 3117 3122 3124 3127 3126 3125 3126 3132 3127 3133 3131 3133 3137 3137 3139
3113 3117 3115 3115 3115 3115 3115 3116 3115 3114 3114 3113 3114 3114 3114 3115 3117 3118 3119 3118 3117 3117 3119 3119 3119 3117 3115 3113 3115 3114 3114 3115 3118 3120 3123 3122 3119 3131 3137 3132 3128 3132 3134 3136 3137
3108 3109 3110 3113 3114 3115 3113 3113 3114 3112 3111 3110 3110 3111 3111 3112 3112 3115 3116 3116 3116 3116 3116 3118 3117 3117 3114 3111 3110 3111 3111 3113 3115 3117 3120 3121 3122 3132 3130 3126 3128 3131 3132 3134 3135
Wind_Speed
6 6 5 6 6 7 8 10 12 13 13 12 11 11 12 15 18 24 23 20 14 10 8 6 5 6 7 6 9 4 10 10 9 8 9 8 5 6 2 1 3 3 4 6 5
7 7 8 8 8 8 8 9 11 12 12 11 10 9 7 8 8 12 23 27 21 16 12 10 8 7 4 7 6 7 10 7 9 7 8 7 5 4 5 1 1 2 2 4 7
11 11 10 10 10 10 10 10 11 12 12 11 10 9 6 6 6 8 9 21 28 22 17 12 9 9 7 8 6 5 9 9 8 10 8 7 5 3 4 4 4 6 6 4 7
17 15 14 13 13 12 13 12 12 12 13 12 11 10 8 4 2 14 10 11 24 28 21 17 12 11 10 10 9 10 10 9 9 11 8 7 5 3 4 5 2 6 6 5 4
22 21 20 18 16 15 15 15 14 13 14 14 13 12 10 7 9 8 7 8 14 27 25 20 15 12 14 13 12 13 14 12 10 9 8 7 5 5 5 4 2 8 5 4 6
23 24 25 24 21 19 18 18 16 16 16 15 15 15 13 8 15 11 7 5 8 18 23 22 17 14 17 16 16 15 15 16 12 10 8 8 9 5 4 3 5 7 10 10 13
24 25 26 27 26 25 23 21 19 18 18 17 17 17 17 13 12 10 10 6 5 12 14 15 17 18 16 17 15 18 18 16 15 11 9 11 15 8 4 2 7 8 11 12 14
25 26 27 27 28 28 27 26 23 21 20 19 18 19 21 20 15 11 12 11 8 10 14 15 15 18 20 20 19 18 18 21 17 10 10 9 12 2 5 3 6 9 13 9 13
27 27 27 28 29 29 29 29 27 25 23 21 19 20 18 20 18 14 13 14 12 11 13 16 14 13 13 16 21 21 23 19 20 7 11 12 12 8 5 7 8 10 14 12 15
29 29 29 28 28 29 29 29 28 28 26 23 22 20 21 16 15 17 13 14 14 13 14 15 13 13 15 16 23 19 22 22 19 15 13 14 15 8 9 9 11 12 14 15 16
26 27 31 30 29 29 27 25 22 23 31 26 7 17 11 14 22 16 17 16 16 15 19 16 15 19 15 17 16 18 17 19 17 15 17 19 16 14 11 11 11 13 14 15 17
24 26 28 29 28 27 25 21 25 26 30 29 29 28 21 18 17 17 18 18 18 20 16 18 24 18 16 16 14 15 17 19 18 18 19 20 19 13 10 11 11 13 14 14 17
23 24 25 28 27 26 22 23 22 23 28 33 30 30 27 25 27 20 22 22 18 18 19 22 20 9 15 16 16 17 19 17 17 15 16 17 21 18 13 10 6 8 12 15 18
22 21 23 23 25 23 21 19 19 18 16 28 27 31 28 24 30 28 25 24 24 23 20 22 20 20 17 18 17 21 17 17 15 14 20 18 24 22 16 10 9 6 9 13 17
23 20 20 20 22 20 23 15 13 10 8 15 26 24 26 30 24 27 28 29 29 24 20 23 21 19 19 21 20 21 13 14 14 17 18 21 18 16 14 14 14 12 9 11 16
22 21 17 18 19 21 18 12 10 10 14 15 15 21 24 30 28 20 26 30 28 29 29 26 22 19 18 16 18 16 15 16 18 19 20 21 24 18 17 16 6 7 9 10 14
21 20 17 16 16 16 13 12 11 17 16 27 19 22 24 28 35 31 25 28 35 29 34 31 29 24 19 15 14 17 17 19 17 16 13 15 18 14 14 8 10 12 12 11 14
21 20 16 17 15 14 11 14 22 24 26 8 8 15 23 24 28 36 38 33 34 37 30 33 33 29 28 24 20 21 20 22 13 11 11 13 12 19 11 11 13 14 11 10 13
19 18 15 15 14 13 14 24 27 19 20 16 23 17 22 23 19 26 31 39 41 35 38 36 32 26 29 28 24 23 27 20 25 23 15 16 7 9 12 11 14 12 14 14 14
15 16 16 15 14 13 18 27 20 20 15 9 15 21 20 23 22 26 22 27 30 33 35 33 37 24 20 21 25 27 22 19 22 16 16 16 12 13 10 8 10 12 13 12 15
12 7 16 11 11 16 21 20 21 22 14 17 16 18 19 17 11 18 25 24 21 26 27 29 30 27 18 22 23 22 26 25 24 25 14 13 18 4 3 9 5 8 12 14 15
9 3 14 9 11 12 19 18 18 20 20 21 15 14 13 13 10 17 15 13 15 19 20 26 27 22 24 20 20 27 22 25 26 22 22 20 22 8 4 5 5 5 11 13 14
9 10 13 10 8 11 14 16 17 19 19 19 20 19 18 17 16 15 14 2 3 12 15 20 25 21 24 26 20 18 22 17 24 23 22 13 13 12 9 4 4 7 10 14 14
6 2 6 10 11 10 8 12 16 16 17 19 21 19 21 20 16 16 10 10 5 8 18 14 17 23 27 27 24 27 26 24 21 22 20 24 21 11 11 5 4 6 9 10 14
4 2 10 1 5 11 12 10 8 10 13 12 15 22 22 22 21 18 18 12 8 8 6 13 17 18 23 20 19 21 27 26 27 24 23 7 7 6 8 5 4 3 8 3 8
5 6 9 12 11 9 10 9 9 11 13 16 15 15 16 24 24 21 16 15 15 14 10 11 14 14 16 20 17 20 16 17 21 25 23 25 6 5 14 6 8 8 8 7 3
11 10 10 5 7 8 9 8 7 10 9 12 13 12 14 14 18 21 19 15 12 10 8 9 11 12 21 21 19 22 20 20 20 17 17 5 16 10 8 5 5 3 3 3 3
Wind_Direction
310 304 293 281 272 268 261 256 253 255 259 257 255 252 254 259 254 246 245 241 242 245 256 286 324 358 13 12 333 307 288 29 17 11 354 15 13 9 343 308 99 69 73 157 28
287 289 289 283 275 268 262 257 254 251 250 252 259 266 271 278 272 253 239 237 236 235 242 262 288 326 339 320 327 314 326 18 356 347 348 347 351 320 356 280 309 142 112 327 16
283 281 278 279 278 272 263 256 252 254 252 253 252 264 271 295 324 259 265 237 232 232 235 246 272 289 281 283 285 281 299 325 329 330 335 340 318 347 310 310 256 230 178 329 10
277 277 277 273 272 273 270 263 252 252 254 254 251 249 256 260 39 264 288 262 229 229 229 239 250 261 273 264 275 281 287 307 316 322 316 321 324 334 308 306 299 214 247 316 10
273 275 274 274 271 270 270 267 263 256 256 255 251 250 245 247 282 280 296 289 232 223 226 231 241 255 261 260 270 270 282 286 304 311 307 307 297 305 304 281 264 194 209 226 184
268 270 272 273 272 271 267 265 264 260 256 256 253 250 250 249 258 267 276 292 240 218 221 227 238 251 254 261 266 268 271 283 289 294 292 295 297 288 238 280 183 181 183 194 194
272 269 267 267 269 269 270 268 264 260 257 255 254 252 248 234 239 257 261 250 221 220 219 239 244 249 254 267 269 267 274 270 278 259 271 303 295 257 296 251 192 190 189 204 199
273 271 271 268 264 265 265 266 268 264 259 256 252 254 253 245 235 238 254 245 230 214 220 232 243 252 252 258 262 270 264 266 270 239 270 298 301 340 313 226 209 202 197 241 216
275 276 273 269 269 267 265 262 260 264 260 256 255 252 253 247 241 230 247 240 242 237 232 238 245 252 255 258 258 251 255 257 263 220 280 262 294 291 296 255 235 215 204 220 207
274 274 278 278 272 266 267 267 262 257 258 255 253 256 250 245 243 226 233 228 222 233 236 242 247 251 250 244 248 247 243 247 244 264 262 260 274 284 270 265 249 225 218 216 208
276 276 273 276 278 277 268 268 274 277 253 245 253 244 262 230 236 231 214 221 218 226 237 242 235 241 247 247 258 265 268 269 271 263 271 268 266 278 268 274 242 230 228 217 211
285 277 273 274 275 277 277 269 260 252 250 242 240 236 224 238 225 221 214 208 212 225 239 238 238 248 247 251 256 257 257 262 266 265 261 262 257 267 263 255 237 239 231 221 211
293 283 275 270 273 276 275 271 268 263 261 251 246 243 242 239 235 219 218 213 216 231 235 240 240 264 240 247 252 254 255 263 270 271 263 247 260 258 245 243 236 222 231 225 212
295 303 288 274 273 275 274 273 266 269 275 259 247 239 235 227 237 228 219 224 224 235 243 247 246 249 251 250 249 257 254 258 265 261 259 235 253 251 225 237 241 240 228 221 213
289 293 295 278 264 265 264 267 258 253 264 261 238 230 224 222 231 234 224 220 225 234 235 244 238 247 249 254 249 252 263 249 257 265 265 256 235 275 204 234 247 236 241 218 218
288 284 283 279 271 259 262 247 221 225 244 249 224 216 219 221 223 225 216 221 230 236 239 245 238 243 251 259 241 242 246 254 255 257 254 238 247 241 222 230 237 199 267 233 221
284 282 275 267 268 263 250 214 225 237 243 245 241 231 230 227 225 221 221 216 221 227 237 241 240 238 239 246 231 229 238 248 236 229 239 247 218 251 270 282 261 262 257 269 239
284 273 273 259 267 260 226 204 236 239 240 267 274 244 229 227 228 226 228 228 229 228 238 233 241 235 233 234 237 227 236 250 260 251 279 172 221 245 255 256 260 254 226 281 221
286 271 271 261 264 253 215 223 230 245 249 261 255 249 247 235 235 225 231 232 233 229 235 245 248 246 234 230 233 237 236 241 262 275 278 261 237 212 258 257 245 245 250 277 216
285 269 268 270 259 245 223 237 244 241 264 259 252 247 253 242 218 231 228 234 235 233 234 240 248 243 222 222 233 231 233 234 245 259 277 264 251 253 219 242 235 242 222 236 208
301 289 261 268 253 235 233 244 248 243 252 247 264 271 260 267 254 236 238 239 229 229 228 228 229 234 205 212 220 218 235 239 253 236 252 243 250 156 197 217 248 246 208 204 202
295 235 266 250 246 246 244 246 246 246 240 252 247 251 268 264 260 271 257 256 204 218 226 222 226 232 220 221 228 231 224 227 239 244 262 287 288 308 237 161 183 211 199 191 195
281 263 268 237 236 255 255 248 246 244 245 247 249 244 246 256 270 258 264 299 241 210 219 219 225 240 241 240 214 232 238 225 229 241 265 262 265 112 121 140 217 176 182 191 193
294 305 265 242 235 254 270 259 260 250 257 242 245 245 244 248 248 258 252 264 247 234 221 207 219 228 245 228 233 213 229 232 237 234 237 243 259 158 195 134 100 140 190 221 221
257 239 239 218 261 253 245 262 271 258 252 248 250 243 241 244 242 245 245 265 241 233 202 212 235 238 246 262 252 253 215 224 230 233 245 234 140 83 70 100 202 136 148 256 230
224 254 239 248 269 272 245 256 270 274 261 255 252 245 244 240 237 242 243 247 244 233 218 227 241 249 243 249 240 247 236 239 238 224 235 254 185 249 248 100 121 111 106 98 95
239 230 244 228 247 252 246 225 271 299 285 258 235 250 248 245 239 232 237 235 240 238 217 232 254 229 245 247 223 236 235 230 240 230 240 259 117 153 126 145 128 104 62 49 53